Frederick, MD

1:48 PM EDT on October 19, 2019 (GMT -0400)
Frederick Municipal

Weather History for KFDK - August, 2019

Change the Weather History Date:

Friday, August 23, 2019

  Actual Average (WUND) Record (WUND)
Temperature  
Mean Temperature 68 °F -  
Max Temperature 73 °F - - (-1)
Min Temperature 62 °F - - (-1)
Cooling Degree Days 2    
Growing Degree Days 18 (Base 50)    
Moisture  
Dew Point 67 °F    
Average Humidity 93    
Maximum Humidity 100    
Minimum Humidity 78    
Precipitation  
Precipitation 0.01 in - - ()
Sea Level Pressure  
Sea Level Pressure 30.04 in    
Wind  
Wind Speed 3 mph (NNE)    
Max Wind Speed 13 mph    
Max Gust Speed -    
Visibility 8 miles    
Events Rain    
Averages and records for this station are not official NWS values.
T = Trace of Precipitation, MM = Missing Value Source: NWS Daily Summary

Daily Weather History Graph

Daily Weather History Graph

Search for Another Location

Airport or City:

Astronomy

Aug. 23, 2019 Rise Set
Actual Time 6:29 AM EDT 7:54 PM EDT
Civil Twilight 6:01 AM EDT 8:22 PM EDT
Nautical Twilight 5:27 AM EDT 8:55 PM EDT
Astronomical Twilight 4:51 AM EDT 9:31 PM EDT
Moon No Moon Rise 2:01 PM EDT (8/23)
Length of Visible Light 14h 21m
Length of Day
13h 24m
Waning Gibbous, 50% of the Moon is Illuminated
Aug 23
Waning Gibbous
Aug 30
New
Sep 5
First Quarter
Sep 14
Full
Sep 21
Last Quarter

Hourly Weather History & Observations

Time (EDT) Temp. Dew Point Humidity Pressure Visibility Wind Dir Wind Speed Gust Speed Precip Events Conditions
12:10 AM 73.4 °F 71.6 °F 94% 29.98 in 10.0 mi Calm Calm - N/A   Clear
12:30 AM 73.4 °F 71.6 °F 94% 29.98 in 10.0 mi North 3.5 mph - N/A   Scattered Clouds
12:50 AM 73.4 °F 71.6 °F 94% 29.98 in 10.0 mi NE 3.5 mph - N/A   Scattered Clouds
1:10 AM 73.4 °F 71.6 °F 94% 29.98 in 7.0 mi Calm Calm - N/A   Clear
1:30 AM 71.6 °F 71.6 °F 100% 29.97 in 7.0 mi Calm Calm - N/A   Clear
1:50 AM 71.6 °F 69.8 °F 94% 29.97 in 10.0 mi Calm Calm - N/A   Clear
2:10 AM 71.6 °F 71.6 °F 100% 29.97 in 7.0 mi Calm Calm - N/A   Scattered Clouds
2:30 AM 71.6 °F 69.8 °F 94% 29.97 in 7.0 mi Calm Calm - N/A   Scattered Clouds
2:50 AM 71.6 °F 71.6 °F 100% 29.97 in 7.0 mi Calm Calm - N/A   Mostly Cloudy
3:10 AM 71.6 °F 69.8 °F 94% 29.97 in 7.0 mi Calm Calm - N/A   Overcast
3:30 AM 71.6 °F 71.6 °F 100% 29.98 in 7.0 mi Calm Calm - N/A   Overcast
3:50 AM 71.6 °F 71.6 °F 100% 29.98 in 7.0 mi Calm Calm - N/A   Overcast
4:10 AM 71.6 °F 71.6 °F 100% 29.99 in 7.0 mi Calm Calm - 0.01 in   Overcast
4:30 AM 71.6 °F 71.6 °F 100% 29.99 in 7.0 mi Calm Calm - 0.01 in   Overcast
4:50 AM 71.6 °F 69.8 °F 94% 29.98 in 10.0 mi NNE 3.5 mph - 0.01 in   Mostly Cloudy
5:30 AM 71.6 °F 69.8 °F 94% 29.99 in 10.0 mi NNE 3.5 mph - N/A   Scattered Clouds
5:50 AM 71.6 °F 69.8 °F 94% 30.00 in 10.0 mi NNE 5.8 mph - N/A   Overcast
6:30 AM 71.6 °F 68.0 °F 88% 30.01 in 10.0 mi NNE 12.7 mph - N/A   Mostly Cloudy
6:50 AM 69.8 °F 64.4 °F 83% 30.03 in 10.0 mi NNE 10.4 mph - N/A   Mostly Cloudy
7:10 AM 69.8 °F 64.4 °F 83% 30.03 in 10.0 mi NNE 10.4 mph - N/A   Mostly Cloudy
7:47 AM 69.8 °F 64.4 °F 83% 30.05 in 7.0 mi NNE 9.2 mph - N/A Rain Light Rain
8:47 AM 68.0 °F 64.4 °F 88% 30.07 in 7.0 mi NNE 9.2 mph - N/A   Overcast
10:47 AM 66.2 °F 64.4 °F 94% 30.10 in 7.0 mi NNE 6.9 mph - N/A   Light Drizzle
11:47 AM 66.2 °F 64.4 °F 94% 30.10 in 7.0 mi North 8.1 mph - N/A   Overcast
12:47 PM 66.2 °F 64.4 °F 94% 30.10 in 7.0 mi NNE 8.1 mph - N/A   Overcast
1:47 PM 64.4 °F 62.6 °F 94% 30.09 in 2.5 mi North 5.8 mph - N/A   Overcast
2:17 PM 64.4 °F 62.6 °F 94% 30.10 in 7.0 mi North 5.8 mph - N/A   Overcast
2:49 PM 64.4 °F 62.6 °F 94% 30.08 in 7.0 mi NNE 8.1 mph - N/A   Overcast
3:47 PM 66.2 °F 62.6 °F 88% 30.09 in 10.0 mi NNE 5.8 mph - N/A   Overcast
4:49 PM 68.0 °F 62.6 °F 83% 30.08 in 10.0 mi North 4.6 mph - N/A   Overcast
6:47 PM 69.8 °F 62.6 °F 78% 30.09 in 10.0 mi Calm Calm - N/A   Mostly Cloudy
7:47 PM 69.8 °F 64.4 °F 83% 30.08 in 10.0 mi Calm Calm - N/A   Overcast
9:30 PM 64.4 °F 62.6 °F 94% 30.11 in 2.5 mi Calm Calm - N/A   Clear
9:50 PM 64.4 °F 62.6 °F 94% 30.12 in 5.0 mi Calm Calm - N/A   Clear
10:30 PM 62.6 °F 62.6 °F 100% 30.13 in 7.0 mi Calm Calm - N/A   Clear
10:50 PM 62.6 °F 60.8 °F 94% 30.13 in 5.0 mi Calm Calm - N/A   Clear
11:10 PM 62.6 °F 60.8 °F 94% 30.13 in 3.0 mi Calm Calm - N/A   Clear
11:30 PM 62.6 °F 60.8 °F 94% 30.14 in 1.5 mi Calm Calm - N/A   Mostly Cloudy